YO8RBY-13 Weather Reports


time (UTC)temp
C
wind
direction
speed
KPH
gust
KPH
rain 1hr
cm
rain 24hr
cm
rain mn
cm
humidity
%
barometer
mb
20260507052357 16 0.0 0.0 0.00 0.00 0.00 10 972.8
20260507051356 15 0.0 0.0 0.00 0.00 0.00 10 972.8
20260507050354 15 0.0 0.0 0.00 0.00 0.00 10 972.8
20260507045356 13 0.0 0.0 0.00 0.00 0.00 10 972.6
20260507044354 12 0.0 0.0 0.00 0.00 0.00 10 972.3
20260507043354 11 0.0 0.0 0.00 0.00 0.00 10 971.6
20260507042355 9 0.0 0.0 0.00 0.00 0.00 10 969.5
20260507041354 8 0.0 0.0 0.00 0.00 0.00 10 969.1
20260507040354 7 0.0 0.0 0.00 0.00 0.00 10 968.9
20260507035409 7 0.0 0.0 0.00 0.00 0.00 10 968.7
20260507034409 7 0.0 0.0 0.00 0.00 0.00 10 968.5
20260507033354 6 0.0 0.0 0.00 0.00 0.00 10 968.5
20260507032354 6 0.0 0.0 0.00 0.00 0.00 10 968.4
20260507031410 6 0.0 0.0 0.00 0.00 0.00 10 968.3
20260507030353 6 0.0 0.0 0.00 0.00 0.00 10 968.3
20260507025355 6 0.0 0.0 0.00 0.00 0.00 10 968.4
20260507024353 6 0.0 0.0 0.00 0.00 0.00 10 968.5
20260507023354 6 0.0 0.0 0.00 0.00 0.00 10 968.5
20260507022355 6 0.0 0.0 0.00 0.00 0.00 10 968.7
20260507021355 6 0.0 0.0 0.00 0.00 0.00 10 968.9
20260507020354 7 0.0 0.0 0.00 0.00 0.00 10 968.9
20260507015353 7 0.0 0.0 0.00 0.00 0.00 10 969.0
20260507014355 7 0.0 0.0 0.00 0.00 0.00 10 969.1
20260507013355 7 0.0 0.0 0.00 0.00 0.00 10 969.3
20260507012354 8 0.0 0.0 0.00 0.00 0.00 10 969.6
20260507011355 8 0.0 0.0 0.00 0.00 0.00 10 969.5
20260507010356 7 0.0 0.0 0.00 0.00 0.00 10 969.3
20260507005354 7 0.0 0.0 0.00 0.00 0.00 10 969.4
20260507004353 8 0.0 0.0 0.00 0.00 0.00 10 969.5
20260507003354 8 0.0 0.0 0.00 0.00 0.00 10 969.4
20260507002424 8 0.0 0.0 0.00 0.00 0.00 10 969.9
20260507001354 8 0.0 0.0 0.00 0.00 0.00 10 969.9
20260507000353 8 0.0 0.0 0.00 0.00 0.00 10 969.5
20260506235353 8 0.0 0.0 0.00 0.00 0.00 10 969.6
20260506234355 8 0.0 0.0 0.00 0.00 0.00 10 969.3
20260506233354 8 0.0 0.0 0.00 0.00 0.00 10 969.3
20260506232356 8 0.0 0.0 0.00 0.00 0.00 10 969.4
20260506231354 8 0.0 0.0 0.00 0.00 0.00 10 969.6
20260506230354 8 0.0 0.0 0.00 0.00 0.00 10 970.0
20260506225353 9 0.0 0.0 0.00 0.00 0.00 10 970.2
20260506224355 8 0.0 0.0 0.00 0.00 0.00 10 969.9
20260506223414 8 0.0 0.0 0.00 0.00 0.00 10 970.2
20260506222355 9 0.0 0.0 0.00 0.00 0.00 10 970.3
20260506221353 10 0.0 0.0 0.00 0.00 0.00 10 970.3
20260506220354 9 0.0 0.0 0.00 0.00 0.00 10 970.3
20260506215354 10 0.0 0.0 0.00 0.00 0.00 10 970.5
20260506214353 10 0.0 0.0 0.00 0.00 0.00 10 970.7
20260506213354 10 0.0 0.0 0.00 0.00 0.00 10 970.7
20260506212354 10 0.0 0.0 0.00 0.00 0.00 10 970.7
20260506211353 11 0.0 0.0 0.00 0.00 0.00 10 971.1
20260506210354 11 0.0 0.0 0.00 0.00 0.00 10 971.4
20260506205409 11 0.0 0.0 0.00 0.00 0.00 10 971.3
20260506204353 11 0.0 0.0 0.00 0.00 0.00 10 971.2
20260506203353 11 0.0 0.0 0.00 0.00 0.00 10 971.2
20260506202354 12 0.0 0.0 0.00 0.00 0.00 10 971.4
20260506201353 12 0.0 0.0 0.00 0.00 0.00 10 971.5
20260506200357 12 0.0 0.0 0.00 0.00 0.00 10 971.5
20260506195353 13 0.0 0.0 0.00 0.00 0.00 10 971.5
20260506194441 13 0.0 0.0 0.00 0.00 0.00 10 971.5
20260506193356 13 0.0 0.0 0.00 0.00 0.00 10 971.6
20260506192353 13 0.0 0.0 0.00 0.00 0.00 10 971.5
20260506191355 13 0.0 0.0 0.00 0.00 0.00 10 971.4
20260506190353 13 0.0 0.0 0.00 0.00 0.00 10 971.3
20260506185356 13 0.0 0.0 0.00 0.00 0.00 10 971.3
20260506184354 13 0.0 0.0 0.00 0.00 0.00 10 971.3
20260506183410 14 0.0 0.0 0.00 0.00 0.00 10 971.2
20260506182439 14 0.0 0.0 0.00 0.00 0.00 10 971.1
20260506181353 15 0.0 0.0 0.00 0.00 0.00 10 971.0
20260506180425 16 0.0 0.0 0.00 0.00 0.00 10 970.8
20260506175353 16 0.0 0.0 0.00 0.00 0.00 10 970.7
20260506174354 17 0.0 0.0 0.00 0.00 0.00 99 970.6
20260506173355 17 0.0 0.0 0.00 0.00 0.00 95 970.6
20260506172353 18 0.0 0.0 0.00 0.00 0.00 92 970.4
20260506171353 18 0.0 0.0 0.00 0.00 0.00 83 970.3
20260506170353 19 0.0 0.0 0.00 0.00 0.00 76 970.3
20260506165353 19 0.0 0.0 0.00 0.00 0.00 74 970.2
20260506164353 20 0.0 0.0 0.00 0.00 0.00 60 970.2
20260506163353 21 0.0 0.0 0.00 0.00 0.00 49 970.1
20260506162410 21 0.0 0.0 0.00 0.00 0.00 47 970.1
20260506161354 21 0.0 0.0 0.00 0.00 0.00 44 970.0
20260506160353 22 0.0 0.0 0.00 0.00 0.00 44 970.0
20260506155355 22 0.0 0.0 0.00 0.00 0.00 46 970.0
20260506154356 22 0.0 0.0 0.00 0.00 0.00 43 970.0
20260506153356 23 0.0 0.0 0.00 0.00 0.00 40 969.9
20260506152409 23 0.0 0.0 0.00 0.00 0.00 41 970.0
20260506151353 23 0.0 0.0 0.00 0.00 0.00 40 970.1
20260506150353 24 0.0 0.0 0.00 0.00 0.00 39 970.1
20260506145409 24 0.0 0.0 0.00 0.00 0.00 37 970.2
20260506144353 24 0.0 0.0 0.00 0.00 0.00 38 970.2
20260506143353 24 0.0 0.0 0.00 0.00 0.00 36 970.3
20260506142354 24 0.0 0.0 0.00 0.00 0.00 35 970.3
20260506141354 25 0.0 0.0 0.00 0.00 0.00 34 970.3
20260506140353 25 0.0 0.0 0.00 0.00 0.00 34 970.2
20260506135354 25 0.0 0.0 0.00 0.00 0.00 34 970.1
20260506134353 25 0.0 0.0 0.00 0.00 0.00 34 970.2
20260506133353 25 0.0 0.0 0.00 0.00 0.00 33 970.2
20260506132354 25 0.0 0.0 0.00 0.00 0.00 33 970.1
20260506131409 25 0.0 0.0 0.00 0.00 0.00 36 970.2
20260506130353 25 0.0 0.0 0.00 0.00 0.00 33 970.2
20260506125354 25 0.0 0.0 0.00 0.00 0.00 32 970.2
20260506124408 25 0.0 0.0 0.00 0.00 0.00 32 970.3
20260506123408 26 0.0 0.0 0.00 0.00 0.00 31 970.4
20260506122353 26 0.0 0.0 0.00 0.00 0.00 33 970.4
20260506121353 25 0.0 0.0 0.00 0.00 0.00 32 970.4
20260506120353 25 0.0 0.0 0.00 0.00 0.00 31 970.6
20260506115353 26 0.0 0.0 0.00 0.00 0.00 28 970.7
20260506114353 26 0.0 0.0 0.00 0.00 0.00 30 970.8
20260506113353 25 0.0 0.0 0.00 0.00 0.00 29 970.7
20260506112353 25 0.0 0.0 0.00 0.00 0.00 30 970.8
20260506111411 26 0.0 0.0 0.00 0.00 0.00 29 970.9
20260506110353 26 0.0 0.0 0.00 0.00 0.00 28 971.0
20260506105408 25 0.0 0.0 0.00 0.00 0.00 32 971.1
20260506104409 25 0.0 0.0 0.00 0.00 0.00 32 971.2
20260506103355 25 0.0 0.0 0.00 0.00 0.00 35 971.2
20260506102353 25 0.0 0.0 0.00 0.00 0.00 35 971.3
20260506101354 24 0.0 0.0 0.00 0.00 0.00 39 971.5
20260506100354 24 0.0 0.0 0.00 0.00 0.00 43 971.5
20260506095411 23 0.0 0.0 0.00 0.00 0.00 50 971.7
20260506094353 23 0.0 0.0 0.00 0.00 0.00 61 971.7
20260506093408 23 0.0 0.0 0.00 0.00 0.00 65 971.8
20260506092408 23 0.0 0.0 0.00 0.00 0.00 68 971.9
20260506091353 23 0.0 0.0 0.00 0.00 0.00 62 972.0
20260506090354 22 0.0 0.0 0.00 0.00 0.00 61 971.9
20260506085353 23 0.0 0.0 0.00 0.00 0.00 53 971.9
20260506084425 22 0.0 0.0 0.00 0.00 0.00 53 971.9
20260506083353 22 0.0 0.0 0.00 0.00 0.00 59 971.9
20260506082410 21 0.0 0.0 0.00 0.00 0.00 63 971.8
20260506081408 21 0.0 0.0 0.00 0.00 0.00 72 971.9
20260506080424 20 0.0 0.0 0.00 0.00 0.00 66 971.9
20260506073412 21 0.0 0.0 0.00 0.00 0.00 53 971.8
20260506072354 21 0.0 0.0 0.00 0.00 0.00 54 971.7
20260506071353 21 0.0 0.0 0.00 0.00 0.00 49 971.7
20260506070353 21 0.0 0.0 0.00 0.00 0.00 50 971.7
20260506062353 19 0.0 0.0 0.00 0.00 0.00 46 971.8
20260506061353 18 0.0 0.0 0.00 0.00 0.00 48 971.7
20260506060408 18 0.0 0.0 0.00 0.00 0.00 47 971.7